Time,TemperatureF,DewpointF,PressureIn,WindDirection,WindDirectionDegrees,WindSpeedMPH,WindSpeedGustMPH,Humidity,HourlyPrecipIn,Conditions,Clouds,dailyrainin,SolarRadiationWatts/m^2,SoftwareType,DateUTC
2013-01-22 00:00:00,33.9,18.6,30.18,WNW,293,9.0,16.0,53,0.00,CLR,,0.00,0.0,WeatherDisplay:10.37,2013-01-22 05:00:00,
2013-01-22 00:01:00,33.9,18.1,30.18,NW,306,13.8,13.8,52,0.00,CLR,,0.00,0.0,WeatherDisplay:10.37,2013-01-22 05:01:00,
2013-01-22 00:03:00,33.9,18.6,30.18,WNW,283,12.7,12.7,53,0.00,CLR,,0.00,0.0,WeatherDisplay:10.37,2013-01-22 05:03:00,
2013-01-22 00:08:00,33.8,18.5,30.18,WNW,301,11.0,11.0,53,0.00,CLR,,0.00,0.0,WeatherDisplay:10.37,2013-01-22 05:08:00,
2013-01-22 00:13:00,33.7,18.8,30.18,WNW,291,11.5,11.5,54,0.00,CLR,,0.00,0.0,WeatherDisplay:10.37,2013-01-22 05:13:00,
2013-01-22 00:18:00,33.7,18.4,30.18,NNW,346,12.7,12.7,53,0.00,CLR,,0.00,0.0,WeatherDisplay:10.37,2013-01-22 05:18:00,
2013-01-22 00:23:00,33.6,18.3,30.18,WNW,292,12.7,12.7,53,0.00,CLR,,0.00,0.0,WeatherDisplay:10.37,2013-01-22 05:23:00,
2013-01-22 00:28:00,33.4,18.1,30.18,WNW,298,10.4,10.4,53,0.00,CLR,,0.00,0.0,WeatherDisplay:10.37,2013-01-22 05:28:00,
2013-01-22 00:34:00,33.3,18.0,30.18,WNW,301,11.5,11.5,53,0.00,CLR,,0.00,0.0,WeatherDisplay:10.37,2013-01-22 05:34:00,
2013-01-22 00:39:00,33.3,18.0,30.18,WNW,292,10.4,10.4,53,0.00,CLR,,0.00,0.0,WeatherDisplay:10.37,2013-01-22 05:39:00,
2013-01-22 00:44:00,33.1,18.2,30.18,WNW,292,4.6,4.6,54,0.00,CLR,,0.00,0.0,WeatherDisplay:10.37,2013-01-22 05:44:00,
2013-01-22 00:49:00,32.9,17.6,30.18,WNW,292,3.5,3.5,53,0.00,CLR,,0.00,0.0,WeatherDisplay:10.37,2013-01-22 05:49:00,
2013-01-22 00:54:00,32.9,17.6,30.18,WNW,292,6.9,6.9,53,0.00,CLR,,0.00,0.0,WeatherDisplay:10.37,2013-01-22 05:54:00,
2013-01-22 00:59:00,32.8,17.5,30.18,WNW,291,6.9,6.9,53,0.00,CLR,,0.00,0.0,WeatherDisplay:10.37,2013-01-22 05:59:00,
2013-01-22 01:04:00,32.8,16.2,30.18,WNW,296,10.4,10.4,50,0.00,CLR,,0.00,0.0,WeatherDisplay:10.37,2013-01-22 06:04:00,
2013-01-22 01:10:00,33.0,15.9,30.17,NW,323,11.5,11.5,49,0.00,CLR,,0.00,0.0,WeatherDisplay:10.37,2013-01-22 06:10:00,
2013-01-22 01:15:00,33.2,16.1,30.17,WNW,297,4.6,4.6,49,0.00,CLR,,0.00,0.0,WeatherDisplay:10.37,2013-01-22 06:15:00,
2013-01-22 01:20:00,33.0,15.9,30.17,WNW,297,5.8,5.8,49,0.00,CLR,,0.00,0.0,WeatherDisplay:10.37,2013-01-22 06:20:00,
2013-01-22 01:25:00,32.7,16.5,30.17,West,279,5.8,5.8,51,0.00,CLR,,0.00,0.0,WeatherDisplay:10.37,2013-01-22 06:25:00,
2013-01-22 01:30:00,32.6,16.0,30.17,WNW,288,13.8,13.8,50,0.00,CLR,,0.00,0.0,WeatherDisplay:10.37,2013-01-22 06:30:00,
2013-01-22 01:36:00,32.5,16.8,30.17,WNW,289,5.8,5.8,52,0.00,CLR,,0.00,0.0,WeatherDisplay:10.37,2013-01-22 06:36:00,
2013-01-22 01:41:00,32.2,17.0,30.17,WNW,289,6.0,6.0,53,0.00,CLR,,0.00,0.0,WeatherDisplay:10.37,2013-01-22 06:41:00,
2013-01-22 01:46:00,31.9,16.2,30.17,WNW,286,6.9,6.9,52,0.00,CLR,,0.00,0.0,WeatherDisplay:10.37,2013-01-22 06:46:00,
2013-01-22 01:51:00,31.7,16.5,30.18,WNW,286,5.8,5.8,53,0.00,CLR,,0.00,0.0,WeatherDisplay:10.37,2013-01-22 06:51:00,
2013-01-22 01:57:00,31.8,16.2,30.18,WNW,286,3.5,3.5,52,0.00,CLR,,0.00,0.0,WeatherDisplay:10.37,2013-01-22 06:57:00,
2013-01-22 02:02:00,31.9,16.7,30.18,WNW,292,13.8,13.8,53,0.00,CLR,,0.00,0.0,WeatherDisplay:10.37,2013-01-22 07:02:00,
2013-01-22 02:07:00,31.8,16.2,30.18,NNW,330,4.6,4.6,52,0.00,CLR,,0.00,0.0,WeatherDisplay:10.37,2013-01-22 07:07:00,
2013-01-22 02:12:00,31.6,16.0,30.17,WNW,301,12.0,12.0,52,0.00,CLR,,0.00,0.0,WeatherDisplay:10.37,2013-01-22 07:12:00,
2013-01-22 02:17:00,31.7,16.5,30.18,WSW,240,8.1,8.1,53,0.00,CLR,,0.00,0.0,WeatherDisplay:10.37,2013-01-22 07:17:00,
2013-01-22 02:22:00,31.5,16.3,30.18,West,266,2.3,2.3,53,0.00,CLR,,0.00,0.0,WeatherDisplay:10.37,2013-01-22 07:22:00,
2013-01-22 02:27:00,31.5,16.3,30.18,West,281,7.0,7.0,53,0.00,CLR,,0.00,0.0,WeatherDisplay:10.37,2013-01-22 07:27:00,
2013-01-22 02:33:00,31.4,16.2,30.18,West,281,5.8,5.8,53,0.00,CLR,,0.00,0.0,WeatherDisplay:10.37,2013-01-22 07:33:00,
2013-01-22 02:38:00,31.2,16.0,30.18,West,281,5.8,5.8,53,0.00,CLR,,0.00,0.0,WeatherDisplay:10.37,2013-01-22 07:38:00,
2013-01-22 02:43:00,31.0,16.7,30.18,WNW,284,5.8,5.8,55,0.00,CLR,,0.00,0.0,WeatherDisplay:10.37,2013-01-22 07:43:00,
2013-01-22 02:48:00,30.8,16.5,30.18,WNW,284,3.5,3.5,55,0.00,CLR,,0.00,0.0,WeatherDisplay:10.37,2013-01-22 07:48:00,
2013-01-22 02:53:00,30.7,16.4,30.18,WNW,284,3.5,0.0,55,0.00,CLR,,0.00,0.0,WeatherDisplay:10.37,2013-01-22 07:53:00,
2013-01-22 02:59:00,30.5,16.2,30.18,WNW,284,4.6,4.6,55,0.00,CLR,,0.00,0.0,WeatherDisplay:10.37,2013-01-22 07:59:00,
2013-01-22 03:04:00,30.4,16.6,30.18,WNW,284,4.6,4.6,56,0.00,CLR,,0.00,0.0,WeatherDisplay:10.37,2013-01-22 08:04:00,
2013-01-22 03:09:00,30.4,16.1,30.18,WNW,284,4.6,4.6,55,0.00,CLR,,0.00,0.0,WeatherDisplay:10.37,2013-01-22 08:09:00,
2013-01-22 03:14:00,30.3,16.0,30.18,WNW,284,0.0,0.0,55,0.00,CLR,,0.00,0.0,WeatherDisplay:10.37,2013-01-22 08:14:00,
2013-01-22 03:19:00,30.3,16.5,30.18,WNW,283,4.0,4.0,56,0.00,CLR,,0.00,0.0,WeatherDisplay:10.37,2013-01-22 08:19:00,
2013-01-22 03:25:00,30.1,16.7,30.18,WNW,284,4.6,4.6,57,0.00,CLR,,0.00,0.0,WeatherDisplay:10.37,2013-01-22 08:25:00,
2013-01-22 03:30:00,30.1,16.7,30.18,NW,321,7.0,7.0,57,0.00,CLR,,0.00,0.0,WeatherDisplay:10.37,2013-01-22 08:30:00,
2013-01-22 03:35:00,30.0,16.6,30.18,NW,318,6.9,6.9,57,0.00,CLR,,0.00,0.0,WeatherDisplay:10.37,2013-01-22 08:35:00,
2013-01-22 03:40:00,30.0,16.2,30.18,West,273,10.4,10.4,56,0.00,CLR,,0.00,0.0,WeatherDisplay:10.37,2013-01-22 08:40:00,
2013-01-22 03:46:00,30.0,16.6,30.18,WNW,293,10.4,10.4,57,0.00,CLR,,0.00,0.0,WeatherDisplay:10.37,2013-01-22 08:46:00,
2013-01-22 03:51:00,29.9,16.5,30.17,WNW,294,5.8,5.8,57,0.00,CLR,,0.00,0.0,WeatherDisplay:10.37,2013-01-22 08:51:00,
2013-01-22 03:56:00,29.8,18.0,30.17,WNW,294,6.9,6.9,61,0.00,CLR,,0.00,0.0,WeatherDisplay:10.37,2013-01-22 08:56:00,
2013-01-22 04:01:00,29.6,16.6,30.17,WNW,294,5.8,5.8,58,0.00,CLR,,0.00,0.0,WeatherDisplay:10.37,2013-01-22 09:01:00,
2013-01-22 04:06:00,29.4,16.4,30.17,WNW,294,4.6,4.6,58,0.00,CLR,,0.00,0.0,WeatherDisplay:10.37,2013-01-22 09:06:00,
2013-01-22 04:12:00,29.3,16.3,30.17,WNW,294,3.5,3.5,58,0.00,CLR,,0.00,0.0,WeatherDisplay:10.37,2013-01-22 09:12:00,
2013-01-22 04:17:00,29.2,16.2,30.17,WNW,294,2.0,2.0,58,0.00,CLR,,0.00,0.0,WeatherDisplay:10.37,2013-01-22 09:17:00,
2013-01-22 04:22:00,29.1,16.5,30.17,WNW,294,2.3,2.3,59,0.00,CLR,,0.00,0.0,WeatherDisplay:10.37,2013-01-22 09:22:00,
2013-01-22 04:27:00,28.8,16.3,30.17,NNW,342,10.4,10.4,59,0.00,CLR,,0.00,0.0,WeatherDisplay:10.37,2013-01-22 09:27:00,
2013-01-22 04:33:00,28.8,15.5,30.17,North,355,11.5,11.5,57,0.00,CLR,,0.00,0.0,WeatherDisplay:10.37,2013-01-22 09:33:00,
2013-01-22 04:38:00,29.2,15.4,30.17,North,355,4.6,4.6,56,0.00,CLR,,0.00,0.0,WeatherDisplay:10.37,2013-01-22 09:38:00,
2013-01-22 04:43:00,29.3,14.3,30.17,NNW,339,11.5,11.5,53,0.00,CLR,,0.00,0.0,WeatherDisplay:10.37,2013-01-22 09:43:00,
2013-01-22 04:48:00,29.4,13.5,30.18,NNE,15,19.6,19.6,51,0.00,CLR,,0.00,0.0,WeatherDisplay:10.37,2013-01-22 09:48:00,
2013-01-22 04:53:00,29.5,13.6,30.18,NW,325,8.1,8.1,51,0.00,CLR,,0.00,0.0,WeatherDisplay:10.37,2013-01-22 09:53:00,
2013-01-22 04:58:00,29.4,13.0,30.19,North,5,13.0,13.0,50,0.00,CLR,,0.00,0.0,WeatherDisplay:10.37,2013-01-22 09:58:00,
2013-01-22 05:04:00,29.4,11.6,30.19,North,360,10.4,10.4,47,0.00,CLR,,0.00,0.0,WeatherDisplay:10.37,2013-01-22 10:04:00,
2013-01-22 05:09:00,29.3,11.5,30.19,NNE,15,7.0,7.0,47,0.00,CLR,,0.00,0.0,WeatherDisplay:10.37,2013-01-22 10:09:00,
2013-01-22 05:14:00,29.3,11.1,30.19,NNW,336,4.0,4.0,46,0.00,CLR,,0.00,0.0,WeatherDisplay:10.37,2013-01-22 10:14:00,
2013-01-22 05:19:00,29.2,11.4,30.19,NNW,336,5.8,5.8,47,0.00,CLR,,0.00,0.0,WeatherDisplay:10.37,2013-01-22 10:19:00,
2013-01-22 05:24:00,29.1,11.8,30.19,NNW,336,6.0,6.0,48,0.00,CLR,,0.00,0.0,WeatherDisplay:10.37,2013-01-22 10:24:00,
2013-01-22 05:29:00,28.9,12.1,30.19,NNW,337,8.0,8.0,49,0.00,CLR,,0.00,0.0,WeatherDisplay:10.37,2013-01-22 10:29:00,
2013-01-22 05:34:00,28.8,12.5,30.19,NNW,342,6.9,6.9,50,0.00,CLR,,0.00,0.0,WeatherDisplay:10.37,2013-01-22 10:34:00,
2013-01-22 05:40:00,28.7,12.8,30.19,North,350,6.0,6.0,51,0.00,CLR,,0.00,0.0,WeatherDisplay:10.37,2013-01-22 10:40:00,
2013-01-22 05:45:00,28.7,12.8,30.20,NNE,23,7.0,7.0,51,0.00,CLR,,0.00,0.0,WeatherDisplay:10.37,2013-01-22 10:45:00,
2013-01-22 05:50:00,28.7,12.4,30.19,North,356,5.0,14.0,50,0.00,CLR,,0.00,0.0,WeatherDisplay:10.37,2013-01-22 10:50:00,
2013-01-22 05:55:00,28.8,12.9,30.19,North,9,11.5,11.5,51,0.00,CLR,,0.00,0.0,WeatherDisplay:10.37,2013-01-22 10:55:00,
2013-01-22 06:00:00,28.8,12.5,30.19,North,350,12.0,12.0,50,0.00,CLR,,0.00,0.0,WeatherDisplay:10.37,2013-01-22 11:00:00,
2013-01-22 06:06:00,28.6,12.3,30.20,North,355,12.7,12.7,50,0.00,CLR,,0.00,0.0,WeatherDisplay:10.37,2013-01-22 11:06:00,
2013-01-22 06:11:00,28.5,12.6,30.21,NW,318,11.5,11.5,51,0.00,CLR,,0.00,0.0,WeatherDisplay:10.37,2013-01-22 11:11:00,
2013-01-22 06:16:00,28.3,12.0,30.20,North,9,16.1,16.1,50,0.00,CLR,,0.00,0.0,WeatherDisplay:10.37,2013-01-22 11:16:00,
2013-01-22 06:21:00,28.3,12.5,30.20,NNW,329,11.5,11.5,51,0.00,CLR,,0.00,0.0,WeatherDisplay:10.37,2013-01-22 11:21:00,
2013-01-22 06:26:00,28.3,12.5,30.21,NNW,348,11.5,11.5,51,0.00,CLR,,0.00,0.0,WeatherDisplay:10.37,2013-01-22 11:26:00,
2013-01-22 06:32:00,28.3,12.5,30.21,NNW,333,13.0,13.0,51,0.00,CLR,,0.00,0.0,WeatherDisplay:10.37,2013-01-22 11:32:00,
2013-01-22 06:37:00,28.2,12.4,30.21,NNW,348,11.5,11.5,51,0.00,CLR,,0.00,0.0,WeatherDisplay:10.37,2013-01-22 11:37:00,
2013-01-22 06:42:00,28.0,12.2,30.22,North,350,18.4,18.4,51,0.00,CLR,,0.00,0.0,WeatherDisplay:10.37,2013-01-22 11:42:00,
2013-01-22 06:47:00,27.9,13.0,30.22,NW,309,11.5,11.5,53,0.00,CLR,,0.00,0.0,WeatherDisplay:10.37,2013-01-22 11:47:00,
2013-01-22 06:52:00,27.6,12.7,30.22,NW,317,12.7,12.7,53,0.00,CLR,,0.00,0.0,WeatherDisplay:10.37,2013-01-22 11:52:00,
2013-01-22 06:57:00,27.6,13.1,30.22,NW,312,13.8,13.8,54,0.00,CLR,,0.00,0.0,WeatherDisplay:10.37,2013-01-22 11:57:00,
2013-01-22 07:02:00,27.5,12.6,30.22,NW,315,12.7,12.7,53,0.00,CLR,,0.00,0.0,WeatherDisplay:10.37,2013-01-22 12:02:00,
2013-01-22 07:07:00,27.5,13.0,30.22,NNW,332,9.2,9.2,54,0.00,CLR,,0.00,0.0,WeatherDisplay:10.37,2013-01-22 12:07:00,
2013-01-22 07:12:00,27.5,12.6,30.22,WNW,298,3.5,3.5,53,0.00,OVC,,0.00,0.0,WeatherDisplay:10.37,2013-01-22 12:12:00,
2013-01-22 07:17:00,27.4,13.3,30.22,NW,309,4.6,4.6,55,0.00,OVC,,0.00,0.0,WeatherDisplay:10.37,2013-01-22 12:17:00,
2013-01-22 07:22:00,27.4,12.9,30.22,NNW,329,9.2,9.2,54,0.00,OVC,,0.00,0.0,WeatherDisplay:10.37,2013-01-22 12:22:00,
2013-01-22 07:28:00,27.5,12.6,30.23,NNW,329,3.5,3.5,53,0.00,OVC,,0.00,0.0,WeatherDisplay:10.37,2013-01-22 12:28:00,
2013-01-22 07:33:00,27.4,13.7,30.23,NW,318,4.6,4.6,56,0.00,OVC,,0.00,0.0,WeatherDisplay:10.37,2013-01-22 12:33:00,
2013-01-22 07:38:00,27.2,13.6,30.23,NW,318,3.5,3.5,56,0.00,OVC,,0.00,0.0,WeatherDisplay:10.37,2013-01-22 12:38:00,
2013-01-22 07:43:00,27.0,13.4,30.24,NW,318,3.5,3.5,56,0.00,OVC,,0.00,0.0,WeatherDisplay:10.37,2013-01-22 12:43:00,
2013-01-22 07:48:00,26.8,13.2,30.24,NW,318,0.0,0.0,56,0.00,OVC,,0.00,5.0,WeatherDisplay:10.37,2013-01-22 12:48:00,
2013-01-22 07:53:00,26.7,12.7,30.24,NW,318,0.0,0.0,55,0.00,OVC,,0.00,9.0,WeatherDisplay:10.37,2013-01-22 12:53:00,
2013-01-22 07:58:00,26.5,12.9,30.24,NW,318,4.0,4.0,56,0.00,OVC,,0.00,11.0,WeatherDisplay:10.37,2013-01-22 12:58:00,
2013-01-22 08:03:00,26.4,13.6,30.24,NW,318,0.0,0.0,58,0.00,OVC,,0.00,12.0,WeatherDisplay:10.37,2013-01-22 13:03:00,
2013-01-22 08:09:00,26.4,13.2,30.24,NW,318,3.5,3.5,57,0.00,OVC,,0.00,12.0,WeatherDisplay:10.37,2013-01-22 13:09:00,
2013-01-22 08:14:00,26.4,12.8,30.25,NW,317,6.9,6.9,56,0.00,OVC,,0.00,14.0,WeatherDisplay:10.37,2013-01-22 13:14:00,
2013-01-22 08:19:00,26.6,12.2,30.25,NW,317,5.8,5.8,54,0.00,OVC,,0.00,14.0,WeatherDisplay:10.37,2013-01-22 13:19:00,
2013-01-22 08:24:00,26.7,12.7,30.25,NW,317,4.6,4.6,55,0.00,OVC,,0.00,16.0,WeatherDisplay:10.37,2013-01-22 13:24:00,
2013-01-22 08:29:00,26.8,13.6,30.25,NW,317,0.0,0.0,57,0.00,OVC,,0.00,16.0,WeatherDisplay:10.37,2013-01-22 13:29:00,
2013-01-22 08:34:00,26.8,12.8,30.26,NW,317,5.8,5.8,55,0.00,OVC,,0.00,18.0,WeatherDisplay:10.37,2013-01-22 13:34:00,
2013-01-22 08:39:00,26.9,12.5,30.26,NW,317,4.6,4.6,54,0.00,OVC,,0.00,18.0,WeatherDisplay:10.37,2013-01-22 13:39:00,
2013-01-22 08:44:00,27.1,12.6,30.26,NW,317,2.3,2.3,54,0.00,OVC,,0.00,19.0,WeatherDisplay:10.37,2013-01-22 13:44:00,
2013-01-22 08:49:00,27.2,12.3,30.26,NW,317,3.5,3.5,53,0.00,OVC,,0.00,19.0,WeatherDisplay:10.37,2013-01-22 13:49:00,
2013-01-22 08:54:00,27.4,12.9,30.26,NW,317,2.3,2.3,54,0.00,OVC,,0.00,19.0,WeatherDisplay:10.37,2013-01-22 13:54:00,
2013-01-22 08:59:00,27.6,12.2,30.27,NW,317,3.5,3.5,52,0.00,OVC,,0.00,21.0,WeatherDisplay:10.37,2013-01-22 13:59:00,
2013-01-22 09:04:00,27.8,12.0,30.27,NW,317,0.0,0.1,51,0.00,OVC,,0.00,21.0,WeatherDisplay:10.37,2013-01-22 14:04:00,
2013-01-22 09:09:00,28.1,11.8,30.28,NW,317,3.5,3.5,50,0.00,OVC,,0.00,21.0,WeatherDisplay:10.37,2013-01-22 14:09:00,
2013-01-22 09:15:00,28.4,12.1,30.28,NW,317,0.0,0.0,50,0.00,OVC,,0.00,21.0,WeatherDisplay:10.37,2013-01-22 14:15:00,
2013-01-22 09:20:00,28.7,11.9,30.28,NW,317,4.0,4.0,49,0.00,OVC,,0.00,21.0,WeatherDisplay:10.37,2013-01-22 14:20:00,
2013-01-22 09:25:00,29.2,11.9,30.29,NNW,348,17.3,17.3,48,0.00,OVC,,0.00,23.0,WeatherDisplay:10.37,2013-01-22 14:25:00,
2013-01-22 09:30:00,29.4,12.1,30.29,NW,316,1.0,17.0,48,0.00,OVC,,0.00,23.0,WeatherDisplay:10.37,2013-01-22 14:30:00,
2013-01-22 09:35:00,29.5,11.7,30.29,NNE,16,11.5,11.5,47,0.00,OVC,,0.00,23.0,WeatherDisplay:10.37,2013-01-22 14:35:00,
2013-01-22 09:40:00,29.6,11.3,30.30,North,9,11.5,11.5,46,0.00,OVC,,0.00,23.0,WeatherDisplay:10.37,2013-01-22 14:40:00,
2013-01-22 09:46:00,29.7,11.9,30.30,North,5,6.9,6.9,47,0.00,OVC,,0.00,25.0,WeatherDisplay:10.37,2013-01-22 14:46:00,
2013-01-22 09:51:00,30.0,12.2,30.30,North,5,6.9,6.9,47,0.00,OVC,,0.00,25.0,WeatherDisplay:10.37,2013-01-22 14:51:00,
2013-01-22 09:57:00,30.2,11.4,30.30,NNE,13,11.5,11.5,45,0.00,OVC,,0.00,25.0,WeatherDisplay:10.37,2013-01-22 14:57:00,
2013-01-22 10:02:00,30.1,11.8,30.31,NE,43,16.1,16.1,46,0.00,OVC,,0.00,25.0,WeatherDisplay:10.37,2013-01-22 15:02:00,
2013-01-22 10:07:00,29.9,12.1,30.32,NNE,26,3.5,3.5,47,0.00,OVC,,0.00,26.0,WeatherDisplay:10.37,2013-01-22 15:07:00,
2013-01-22 10:12:00,30.3,12.9,30.32,NNW,345,5.8,5.8,48,0.00,OVC,,0.00,26.0,WeatherDisplay:10.37,2013-01-22 15:12:00,
2013-01-22 10:17:00,30.7,12.3,30.32,WNW,300,5.8,5.8,46,0.00,OVC,,0.00,26.0,WeatherDisplay:10.37,2013-01-22 15:17:00,
2013-01-22 10:23:00,31.0,12.6,30.33,NW,317,7.0,7.0,46,0.00,OVC,,0.00,26.0,WeatherDisplay:10.37,2013-01-22 15:23:00,
2013-01-22 10:28:00,31.4,13.0,30.33,NW,316,11.5,11.5,46,0.00,OVC,,0.00,26.0,WeatherDisplay:10.37,2013-01-22 15:28:00,
2013-01-22 10:33:00,31.3,11.9,30.33,NW,313,9.2,9.2,44,0.00,OVC,,0.00,26.0,WeatherDisplay:10.37,2013-01-22 15:33:00,
2013-01-22 10:38:00,31.6,14.6,30.32,NW,304,10.4,10.4,49,0.00,OVC,,0.00,28.0,WeatherDisplay:10.37,2013-01-22 15:38:00,
2013-01-22 10:43:00,32.1,12.6,30.33,NNW,340,13.8,13.8,44,0.00,OVC,,0.00,28.0,WeatherDisplay:10.37,2013-01-22 15:43:00,
2013-01-22 10:49:00,32.1,12.6,30.33,NW,325,11.5,11.5,44,0.00,OVC,,0.00,28.0,WeatherDisplay:10.37,2013-01-22 15:49:00,
2013-01-22 10:50:00,42.3,18.5,30.28,WNW,299,12.0,14.0,38,0.00,SCT,,0.00,339.0,WeatherDisplay:10.37,2013-01-22 15:50:00,
2013-01-22 10:54:00,32.3,12.8,30.34,NNW,342,19.6,19.6,44,0.00,OVC,,0.00,28.0,WeatherDisplay:10.37,2013-01-22 15:54:00,
2013-01-22 10:59:00,32.6,13.1,30.34,North,355,13.8,13.8,44,0.00,OVC,,0.00,98.0,WeatherDisplay:10.37,2013-01-22 15:59:00,
2013-01-22 11:00:00,41.9,17.5,30.29,West,274,10.0,17.0,37,0.00,SCT,,0.00,313.0,WeatherDisplay:10.37,2013-01-22 16:00:00,
2013-01-22 11:04:00,33.0,13.4,30.34,North,5,12.7,12.7,44,0.00,OVC,,0.00,457.0,WeatherDisplay:10.37,2013-01-22 16:04:00,
2013-01-22 11:09:00,33.2,13.1,30.34,NW,314,15.0,15.0,43,0.00,OVC,,0.00,466.0,WeatherDisplay:10.37,2013-01-22 16:09:00,
2013-01-22 11:10:00,41.6,18.4,30.29,West,280,12.0,19.0,39,0.00,SCT,,0.00,288.0,WeatherDisplay:10.37,2013-01-22 16:10:00,
2013-01-22 11:14:00,33.3,13.7,30.34,NNW,343,15.0,15.0,44,0.00,OVC,,0.00,476.0,WeatherDisplay:10.37,2013-01-22 16:14:00,
2013-01-22 11:20:00,33.8,13.1,30.34,NW,306,18.4,18.4,42,0.00,OVC,,0.00,487.0,WeatherDisplay:10.37,2013-01-22 16:20:00,
2013-01-22 11:25:00,34.0,13.3,30.34,WNW,299,15.0,15.0,42,0.00,OVC,,0.00,499.0,WeatherDisplay:10.37,2013-01-22 16:25:00,
2013-01-22 11:30:00,34.2,13.5,30.33,NW,325,5.0,15.0,42,0.00,OVC,,0.00,508.0,WeatherDisplay:10.37,2013-01-22 16:30:00,
2013-01-22 11:35:00,34.8,14.0,30.34,NNW,330,12.0,12.0,42,0.00,OVC,,0.00,517.0,WeatherDisplay:10.37,2013-01-22 16:35:00,
2013-01-22 11:40:00,34.8,13.5,30.33,WNW,290,6.9,6.9,41,0.00,OVC,,0.00,527.0,WeatherDisplay:10.37,2013-01-22 16:40:00,
2013-01-22 11:46:00,35.3,15.0,30.34,NW,305,12.0,12.0,43,0.00,OVC,,0.00,536.0,WeatherDisplay:10.37,2013-01-22 16:46:00,
2013-01-22 11:50:00,39.3,16.4,30.31,WNW,283,12.0,17.0,39,0.00,OVC,,0.00,172.0,WeatherDisplay:10.37,2013-01-22 16:50:00,
2013-01-22 11:51:00,35.3,13.3,30.33,NNW,344,13.8,13.8,40,0.00,OVC,,0.00,541.0,WeatherDisplay:10.37,2013-01-22 16:51:00,
2013-01-22 11:57:00,35.7,13.7,30.33,NNE,27,6.9,6.9,40,0.00,OVC,,0.00,548.0,WeatherDisplay:10.37,2013-01-22 16:57:00,
2013-01-22 12:00:00,38.7,15.2,30.32,West,281,10.0,17.0,38,0.00,OVC,,0.00,141.0,WeatherDisplay:10.37,2013-01-22 17:00:00,
2013-01-22 12:02:00,36.0,14.0,30.33,NNW,343,15.0,15.0,40,0.00,OVC,,0.00,557.0,WeatherDisplay:10.37,2013-01-22 17:02:00,
2013-01-22 12:07:00,36.1,14.6,30.33,NW,315,18.4,18.4,41,0.00,OVC,,0.00,561.0,WeatherDisplay:10.37,2013-01-22 17:07:00,
2013-01-22 12:10:00,37.9,14.5,30.32,WNW,282,10.0,18.0,38,0.00,OVC,,0.00,113.0,WeatherDisplay:10.37,2013-01-22 17:10:00,
2013-01-22 12:13:00,36.2,13.6,30.33,NNW,327,11.5,11.5,39,0.00,OVC,,0.00,566.0,WeatherDisplay:10.37,2013-01-22 17:13:00,
2013-01-22 12:18:00,36.1,12.3,30.33,North,355,11.5,11.5,37,0.00,OVC,,0.00,575.0,WeatherDisplay:10.37,2013-01-22 17:18:00,
2013-01-22 12:20:00,37.3,14.6,30.32,West,278,8.0,19.0,39,0.00,OVC,,0.00,83.0,WeatherDisplay:10.37,2013-01-22 17:20:00,
2013-01-22 12:23:00,36.2,13.0,30.32,NE,38,10.4,10.4,38,0.00,OVC,,0.00,575.0,WeatherDisplay:10.37,2013-01-22 17:23:00,
2013-01-22 12:28:00,36.6,15.1,30.32,NNW,342,9.2,9.2,41,0.00,OVC,,0.00,578.0,WeatherDisplay:10.37,2013-01-22 17:28:00,
2013-01-22 12:30:00,36.2,13.6,30.32,West,280,8.0,16.0,39,0.00,OVC,,0.00,53.0,WeatherDisplay:10.37,2013-01-22 17:30:00,
2013-01-22 12:33:00,36.8,14.1,30.32,NW,320,9.2,9.2,39,0.00,OVC,,0.00,580.0,WeatherDisplay:10.37,2013-01-22 17:33:00,
2013-01-22 12:39:00,36.7,13.4,30.32,NW,324,11.5,11.5,38,0.00,OVC,,0.00,582.0,WeatherDisplay:10.37,2013-01-22 17:39:00,
2013-01-22 12:40:00,35.3,13.9,30.32,West,272,9.0,18.0,41,0.00,OVC,,0.00,28.0,WeatherDisplay:10.37,2013-01-22 17:40:00,
2013-01-22 12:44:00,36.9,14.2,30.32,NNE,13,17.3,17.3,39,0.00,CLR,,0.00,584.0,WeatherDisplay:10.37,2013-01-22 17:44:00,
2013-01-22 12:49:00,37.3,15.2,30.32,NNW,335,13.0,13.0,40,0.00,CLR,,0.00,585.0,WeatherDisplay:10.37,2013-01-22 17:49:00,
2013-01-22 12:50:00,34.4,13.6,30.32,West,274,10.0,18.0,42,0.00,OVC,,0.00,7.0,WeatherDisplay:10.37,2013-01-22 17:50:00,
2013-01-22 12:54:00,37.7,14.3,30.31,NW,325,11.5,11.5,38,0.00,CLR,,0.00,587.0,WeatherDisplay:10.37,2013-01-22 17:54:00,
2013-01-22 12:59:00,38.1,15.3,30.30,NNW,327,13.8,13.8,39,0.00,CLR,,0.00,585.0,WeatherDisplay:10.37,2013-01-22 17:59:00,
2013-01-22 13:00:00,33.6,12.9,30.33,West,280,8.0,18.0,42,0.00,OVC,,0.00,0.0,WeatherDisplay:10.37,2013-01-22 18:00:00,
2013-01-22 13:05:00,38.3,14.3,30.31,North,355,9.2,9.2,37,0.00,CLR,,0.00,587.0,WeatherDisplay:10.37,2013-01-22 18:05:00,
2013-01-22 13:10:00,38.6,16.3,30.30,NNW,329,5.0,5.0,40,0.00,CLR,,0.00,582.0,WeatherDisplay:10.37,2013-01-22 18:10:00,
2013-01-22 13:15:00,39.2,15.7,30.29,NNW,348,10.4,10.4,38,0.00,CLR,,0.00,580.0,WeatherDisplay:10.37,2013-01-22 18:15:00,
2013-01-22 13:20:00,39.3,14.5,30.30,NNW,344,5.0,12.0,36,0.00,CLR,,0.00,584.0,WeatherDisplay:10.37,2013-01-22 18:20:00,
2013-01-22 13:26:00,39.7,17.9,30.29,NW,325,19.6,19.6,41,0.00,CLR,,0.00,580.0,WeatherDisplay:10.37,2013-01-22 18:26:00,
2013-01-22 13:30:00,32.6,12.5,30.34,WNW,300,12.0,19.0,43,0.00,OVC,,0.00,0.0,WeatherDisplay:10.37,2013-01-22 18:30:00,
2013-01-22 13:31:00,39.9,15.7,30.29,NW,318,11.5,11.5,37,0.00,CLR,,0.00,575.0,WeatherDisplay:10.37,2013-01-22 18:31:00,
2013-01-22 13:36:00,40.2,17.2,30.29,NNW,348,24.2,24.2,39,0.00,CLR,,0.00,573.0,WeatherDisplay:10.37,2013-01-22 18:36:00,
2013-01-22 13:40:00,32.3,12.8,30.35,WNW,293,9.0,15.0,44,0.00,OVC,,0.00,0.0,WeatherDisplay:10.37,2013-01-22 18:40:00,
2013-01-22 13:42:00,40.2,17.2,30.29,NNW,337,20.7,20.7,39,0.00,CLR,,0.00,570.0,WeatherDisplay:10.37,2013-01-22 18:42:00,
2013-01-22 13:47:00,40.0,17.0,30.28,NW,317,16.1,16.1,39,0.00,CLR,,0.00,563.0,WeatherDisplay:10.37,2013-01-22 18:47:00,
2013-01-22 13:50:00,32.0,13.5,30.35,WNW,296,8.0,13.0,46,0.00,OVC,,0.00,0.0,WeatherDisplay:10.37,2013-01-22 18:50:00,
2013-01-22 13:52:00,40.3,16.7,30.28,WNW,292,6.9,6.9,38,0.00,CLR,,0.00,559.0,WeatherDisplay:10.37,2013-01-22 18:52:00,
2013-01-22 13:57:00,40.8,17.7,30.28,NNW,340,23.0,23.0,39,0.00,CLR,,0.00,552.0,WeatherDisplay:10.37,2013-01-22 18:57:00,
2013-01-22 14:00:00,31.8,12.8,30.35,WNW,293,10.0,19.0,45,0.00,OVC,,0.00,0.0,WeatherDisplay:10.37,2013-01-22 19:00:00,
2013-01-22 14:02:00,40.6,16.9,30.27,NNW,335,33.4,33.4,38,0.00,CLR,,0.00,548.0,WeatherDisplay:10.37,2013-01-22 19:02:00,
2013-01-22 14:07:00,40.7,17.0,30.27,WNW,298,24.0,24.0,38,0.00,CLR,,0.00,541.0,WeatherDisplay:10.37,2013-01-22 19:07:00,
2013-01-22 14:10:00,31.9,12.9,30.35,WNW,287,10.0,16.0,45,0.00,OVC,,0.00,0.0,WeatherDisplay:10.37,2013-01-22 19:10:00,
2013-01-22 14:13:00,40.8,17.1,30.27,NNW,340,19.6,19.6,38,0.00,CLR,,0.00,534.0,WeatherDisplay:10.37,2013-01-22 19:13:00,
2013-01-22 14:18:00,41.0,17.3,30.27,NNE,15,16.1,16.1,38,0.00,CLR,,0.00,529.0,WeatherDisplay:10.37,2013-01-22 19:18:00,
2013-01-22 14:20:00,31.7,12.8,30.35,WNW,289,8.0,13.0,45,0.00,OVC,,0.00,0.0,WeatherDisplay:10.37,2013-01-22 19:20:00,
2013-01-22 14:23:00,41.4,18.3,30.28,WNW,298,16.1,16.1,39,0.00,CLR,,0.00,520.0,WeatherDisplay:10.37,2013-01-22 19:23:00,
2013-01-22 14:28:00,41.6,17.2,30.28,WNW,296,16.1,16.1,37,0.00,CLR,,0.00,513.0,WeatherDisplay:10.37,2013-01-22 19:28:00,
2013-01-22 14:30:00,31.4,13.0,30.35,WNW,303,3.0,11.0,46,0.00,OVC,,0.00,0.0,WeatherDisplay:10.37,2013-01-22 19:30:00,
2013-01-22 14:33:00,41.4,18.3,30.27,WNW,292,21.9,21.9,39,0.00,CLR,,0.00,504.0,WeatherDisplay:10.37,2013-01-22 19:33:00,
2013-01-22 14:39:00,41.6,16.6,30.28,NNW,337,15.0,15.0,36,0.00,CLR,,0.00,497.0,WeatherDisplay:10.37,2013-01-22 19:39:00,
2013-01-22 14:40:00,31.3,13.4,30.36,WNW,303,6.0,12.0,47,0.00,OVC,,0.00,0.0,WeatherDisplay:10.37,2013-01-22 19:40:00,
2013-01-22 14:44:00,41.8,17.4,30.27,NNW,327,17.3,17.3,37,0.00,CLR,,0.00,489.0,WeatherDisplay:10.37,2013-01-22 19:44:00,
2013-01-22 14:49:00,42.0,17.6,30.28,WNW,294,17.3,17.3,37,0.00,CLR,,0.00,478.0,WeatherDisplay:10.37,2013-01-22 19:49:00,
2013-01-22 14:50:00,31.2,12.8,30.36,NW,311,3.0,15.0,46,0.00,OVC,,0.00,0.0,WeatherDisplay:10.37,2013-01-22 19:50:00,
2013-01-22 14:54:00,42.0,16.3,30.27,NW,318,15.0,15.0,35,0.00,CLR,,0.00,468.0,WeatherDisplay:10.37,2013-01-22 19:54:00,
2013-01-22 15:00:00,42.1,17.7,30.28,NW,311,11.5,11.5,37,0.00,CLR,,0.00,457.0,WeatherDisplay:10.37,2013-01-22 20:00:00,
2013-01-22 15:05:00,42.4,19.8,30.28,NNE,16,12.7,12.7,40,0.00,CLR,,0.00,446.0,WeatherDisplay:10.37,2013-01-22 20:05:00,
2013-01-22 15:10:00,42.4,17.3,30.28,WNW,302,9.2,9.2,36,0.00,CLR,,0.00,438.0,WeatherDisplay:10.37,2013-01-22 20:10:00,
2013-01-22 15:15:00,42.3,17.2,30.27,NW,316,10.4,10.4,36,0.00,CLR,,0.00,427.0,WeatherDisplay:10.37,2013-01-22 20:15:00,
2013-01-22 15:20:00,42.3,17.8,30.28,WNW,293,10.4,10.4,37,0.00,CLR,,0.00,411.0,WeatherDisplay:10.37,2013-01-22 20:20:00,
2013-01-22 15:25:00,42.5,18.0,30.28,West,271,16.0,16.0,37,0.00,CLR,,0.00,401.0,WeatherDisplay:10.37,2013-01-22 20:25:00,
2013-01-22 15:30:00,42.9,19.6,30.28,West,277,13.0,13.0,39,0.00,CLR,,0.00,388.0,WeatherDisplay:10.37,2013-01-22 20:30:00,
2013-01-22 15:36:00,42.4,17.3,30.28,West,269,17.3,17.3,36,0.00,FEW,,0.00,376.0,WeatherDisplay:10.37,2013-01-22 20:36:00,
2013-01-22 15:40:00,30.8,12.9,30.35,WNW,292,5.0,9.0,47,0.00,OVC,,0.00,0.0,WeatherDisplay:10.37,2013-01-22 20:40:00,
2013-01-22 15:46:00,42.2,17.8,30.28,WNW,295,6.9,0.0,37,0.00,FEW,,0.00,350.0,WeatherDisplay:10.37,2013-01-22 20:46:00,
2013-01-22 15:48:00,42.3,17.8,30.28,NW,317,13.0,13.0,37,0.00,SCT,,0.00,346.0,WeatherDisplay:10.37,2013-01-22 20:48:00,
2013-01-22 15:50:00,30.9,13.5,30.35,WNW,287,7.0,12.0,48,0.00,OVC,,0.00,0.0,WeatherDisplay:10.37,2013-01-22 20:50:00,
2013-01-22 15:52:00,42.3,17.8,30.28,NW,317,13.0,13.0,37,0.00,SCT,,0.00,346.0,WeatherDisplay:10.37,2013-01-22 20:52:00,
2013-01-22 15:57:00,42.3,17.8,30.28,NW,317,13.0,13.0,37,0.00,SCT,,0.00,346.0,WeatherDisplay:10.37,2013-01-22 20:57:00,
2013-01-22 16:00:00,31.4,13.5,30.35,WNW,288,6.0,11.0,47,0.00,OVC,,0.00,0.0,WeatherDisplay:10.37,2013-01-22 21:00:00,
2013-01-22 16:10:00,31.6,13.2,30.35,WNW,292,6.0,11.0,46,0.00,OVC,,0.00,0.0,WeatherDisplay:10.37,2013-01-22 21:10:00,
2013-01-22 16:20:00,31.9,12.9,30.35,WNW,295,7.0,13.0,45,0.00,OVC,,0.00,0.0,WeatherDisplay:10.37,2013-01-22 21:20:00,
2013-01-22 16:30:00,32.1,13.1,30.35,WNW,298,5.0,12.0,45,0.00,OVC,,0.00,0.0,WeatherDisplay:10.37,2013-01-22 21:30:00,
2013-01-22 16:40:00,32.1,13.6,30.35,NW,307,6.0,12.0,46,0.00,OVC,,0.00,0.0,WeatherDisplay:10.37,2013-01-22 21:40:00,
2013-01-22 16:50:00,32.3,13.3,30.35,WNW,284,6.0,11.0,45,0.00,OVC,,0.00,0.0,WeatherDisplay:10.37,2013-01-22 21:50:00,
2013-01-22 17:00:00,32.3,13.8,30.35,WNW,283,3.0,10.0,46,0.00,OVC,,0.00,0.0,WeatherDisplay:10.37,2013-01-22 22:00:00,
2013-01-22 17:10:00,32.2,14.7,30.35,West,270,3.0,10.0,48,0.00,OVC,,0.00,0.0,WeatherDisplay:10.37,2013-01-22 22:10:00,
2013-01-22 17:20:00,32.2,13.7,30.35,West,270,6.0,11.0,46,0.00,OVC,,0.00,0.0,WeatherDisplay:10.37,2013-01-22 22:20:00,
2013-01-22 17:30:00,32.3,14.3,30.35,West,270,6.0,7.0,47,0.00,OVC,,0.00,0.0,WeatherDisplay:10.37,2013-01-22 22:30:00,
2013-01-22 17:40:00,32.2,14.2,30.35,West,270,5.0,7.0,47,0.00,OVC,,0.00,0.0,WeatherDisplay:10.37,2013-01-22 22:40:00,
2013-01-22 17:50:00,32.2,13.2,30.35,West,270,5.0,9.0,45,0.00,OVC,,0.00,0.0,WeatherDisplay:10.37,2013-01-22 22:50:00,
2013-01-22 18:00:00,32.2,13.7,30.35,West,271,3.0,11.0,46,0.00,OVC,,0.00,0.0,WeatherDisplay:10.37,2013-01-22 23:00:00,
2013-01-22 18:10:00,32.0,13.5,30.35,WNW,292,3.0,10.0,46,0.00,OVC,,0.00,0.0,WeatherDisplay:10.37,2013-01-22 23:10:00,
2013-01-22 18:20:00,31.9,13.9,30.35,WNW,292,5.0,8.0,47,0.00,OVC,,0.00,0.0,WeatherDisplay:10.37,2013-01-22 23:20:00,
2013-01-22 18:30:00,31.7,13.3,30.35,West,277,6.0,10.0,46,0.00,OVC,,0.00,0.0,WeatherDisplay:10.37,2013-01-22 23:30:00,
2013-01-22 18:40:00,31.4,13.0,30.35,West,270,5.0,10.0,46,0.00,OVC,,0.00,0.0,WeatherDisplay:10.37,2013-01-22 23:40:00,
2013-01-22 18:50:00,31.2,13.3,30.35,West,270,3.0,10.0,47,0.00,OVC,,0.00,0.0,WeatherDisplay:10.37,2013-01-22 23:50:00,